Location: Newark
(12.4436°N, 0.6167°W)
Time: 01:04:45
(UTC+00:00)

Vanguard 1 - Pass Details

Date: 10 December 2019
Orbit: 651 x 3832 km, 34.2° (Epoch: 20 January)

Event Time Altitude Azimuth Distance (km) Brightness Sun altitude
Rises 05:11:19 0° 269° (W) 7,730 - -14.7°
Reaches altitude 10° 05:17:05 10° 276° (W) 6,870 - -13.4°
Exits shadow 05:18:37 13° 278° (W) 6,647 13.6 -13.1°
Maximum altitude 05:38:42 42° 341° (NNW) 4,459 13.1 -8.5°
Drops below altitude 10° 05:55:14 10° 49° (NE) 5,350 14.2 -4.8°
Sets 05:59:05 0° 57° (ENE) 5,968 14.6 -3.9°
